,,,PA_Meas_PMT16A,,PR_Meas_QMR101_102,,RH_Meas_QMH101,,SR_Meas_QMS101,,TA_Meas_QMH101,,GenWind,,GenWind,
date,time,status,PA,status,PR,status,RH,status,SR,status,TA,status,DirAvg,status,SpdAvg,
2010-08-23, 00:00:04,VALID,1000.28,VALID,0,VALID,91.8759,VALID,0,VALID,23.6622,VALID,142,VALID,0.5,
2010-08-23, 00:01:04,VALID,1000.26,VALID,0,VALID,91.7004,VALID,0,VALID,23.6817,VALID,142,VALID,0.952734,
2010-08-23, 00:02:04,VALID,1000.26,VALID,0,VALID,91.4944,VALID,0.112286,VALID,23.7189,VALID,142,VALID,0.708594,
2010-08-23, 00:03:04,VALID,1000.24,VALID,0,VALID,91.235,VALID,0,VALID,23.7793,VALID,143,VALID,0.871875,
2010-08-23, 00:04:04,VALID,1000.23,VALID,0,VALID,90.7085,VALID,0,VALID,23.7793,VALID,143,VALID,0.974609,
2010-08-23, 00:05:04,VALID,1000.23,VALID,0,VALID,90.4644,VALID,0,VALID,23.7988,VALID,142,VALID,0.563281,
2010-08-23, 00:06:04,VALID,1000.2,VALID,0,VALID,90.4263,VALID,0,VALID,23.7988,VALID,143,VALID,0.487891,
2010-08-23, 00:07:04,VALID,1000.18,VALID,0,VALID,90.4339,VALID,0,VALID,23.7988,VALID,144,VALID,0.358203,
2010-08-23, 00:08:04,VALID,1000.18,VALID,0,VALID,90.3576,VALID,0,VALID,23.7793,VALID,144,VALID,0.0429688,
2010-08-23, 00:09:04,VALID,1000.17,VALID,0,VALID,90.3957,VALID,0,VALID,23.7793,VALID,144,VALID,0,
2010-08-23, 00:10:04,VALID,1000.15,VALID,0,VALID,90.5102,VALID,0,VALID,23.7793,VALID,144,VALID,0.0503906,
2010-08-23, 00:11:04,VALID,1000.17,VALID,0,VALID,90.7009,VALID,0,VALID,23.7597,VALID,144,VALID,0.221875,
2010-08-23, 00:12:04,VALID,1000.15,VALID,0,VALID,90.678,VALID,0,VALID,23.7597,VALID,144,VALID,0.0109375,
2010-08-23, 00:13:04,VALID,1000.18,VALID,0,VALID,90.6323,VALID,0,VALID,23.7384,VALID,144,VALID,0,
2010-08-23, 00:14:04,VALID,1000.16,VALID,0,VALID,90.7391,VALID,0,VALID,23.7402,VALID,144,VALID,0.00820312,
2010-08-23, 00:15:04,VALID,1000.16,VALID,0,VALID,90.8383,VALID,0,VALID,23.7402,VALID,144,VALID,0.154687,
2010-08-23, 00:16:04,VALID,1000.16,VALID,0,VALID,90.7849,VALID,0,VALID,23.6994,VALID,81,VALID,0.63125,
2010-08-23, 00:17:04,VALID,1000.17,VALID,0,VALID,90.9374,VALID,0,VALID,23.7207,VALID,51,VALID,0.103516,
2010-08-23, 00:18:04,VALID,1000.18,VALID,0,VALID,91.0366,VALID,0,VALID,23.6994,VALID,51,VALID,0,
2010-08-23, 00:19:04,VALID,1000.17,VALID,0,VALID,90.8917,VALID,0,VALID,23.6604,VALID,51,VALID,0,
2010-08-23, 00:20:04,VALID,1000.16,VALID,0,VALID,90.9374,VALID,0,VALID,23.6427,VALID,51,VALID,0,
2010-08-23, 00:21:04,VALID,1000.16,VALID,0,VALID,91.1282,VALID,0,VALID,23.6427,VALID,51,VALID,0,
2010-08-23, 00:22:04,VALID,1000.17,VALID,0,VALID,91.2426,VALID,0,VALID,23.6019,VALID,51,VALID,0,
2010-08-23, 00:23:04,VALID,1000.18,VALID,0,VALID,91.2808,VALID,0,VALID,23.5823,VALID,52,VALID,0,
2010-08-23, 00:24:04,VALID,1000.12,VALID,0,VALID,91.2731,VALID,0,VALID,23.5841,VALID,51,VALID,0,
2010-08-23, 00:25:04,VALID,1000.13,VALID,0,VALID,91.3037,VALID,0,VALID,23.5256,VALID,51,VALID,0,
2010-08-23, 00:26:04,VALID,1000.09,VALID,0,VALID,91.3418,VALID,0,VALID,23.5061,VALID,52,VALID,0,
2010-08-23, 00:27:04,VALID,1000.07,VALID,0,VALID,91.4257,VALID,0,VALID,23.5061,VALID,51,VALID,0,
2010-08-23, 00:28:04,VALID,1000.02,VALID,0,VALID,91.6317,VALID,0,VALID,23.4866,VALID,51,VALID,0,
2010-08-23, 00:29:04,VALID,1000.02,VALID,0,VALID,91.7767,VALID,0,VALID,23.4866,VALID,51,VALID,0,
2010-08-23, 00:30:04,VALID,999.967,VALID,0,VALID,91.9217,VALID,0,VALID,23.4866,VALID,51,VALID,0,
2010-08-23, 00:31:04,VALID,999.961,VALID,0,VALID,91.998,VALID,0,VALID,23.4866,VALID,51,VALID,0,
2010-08-23, 00:32:04,VALID,999.961,VALID,0,VALID,92.12,VALID,0,VALID,23.4458,VALID,52,VALID,0,
2010-08-23, 00:33:04,VALID,999.954,VALID,0,VALID,92.2268,VALID,0,VALID,23.5061,VALID,52,VALID,0,
2010-08-23, 00:34:04,VALID,999.942,VALID,0,VALID,92.3566,VALID,0,VALID,23.5061,VALID,51,VALID,0,
2010-08-23, 00:35:04,VALID,999.94,VALID,0,VALID,92.4557,VALID,0,VALID,23.5256,VALID,52,VALID,0,
2010-08-23, 00:36:04,VALID,999.922,VALID,0,VALID,92.532,VALID,0,VALID,23.5451,VALID,51,VALID,0,
2010-08-23, 00:37:04,VALID,999.916,VALID,0,VALID,92.5778,VALID,0,VALID,23.5646,VALID,51,VALID,0,
2010-08-23, 00:38:04,VALID,999.907,VALID,0,VALID,92.5702,VALID,0,VALID,23.5841,VALID,52,VALID,0,
2010-08-23, 00:39:04,VALID,999.897,VALID,0,VALID,92.5626,VALID,0,VALID,23.6232,VALID,51,VALID,0,
2010-08-23, 00:40:04,VALID,999.903,VALID,0,VALID,92.471,VALID,0,VALID,23.6232,VALID,52,VALID,0,
2010-08-23, 00:41:04,VALID,999.904,VALID,0,VALID,92.3871,VALID,0,VALID,23.6427,VALID,52,VALID,0,
2010-08-23, 00:42:04,VALID,999.9,VALID,0,VALID,92.2268,VALID,0,VALID,23.6232,VALID,51,VALID,0,
2010-08-23, 00:43:04,VALID,999.891,VALID,0,VALID,92.1124,VALID,0,VALID,23.6232,VALID,52,VALID,0,
2010-08-23, 00:44:04,VALID,999.859,VALID,0,VALID,92.0209,VALID,0,VALID,23.6036,VALID,52,VALID,0,
2010-08-23, 00:45:04,VALID,999.863,VALID,0,VALID,91.9827,VALID,0,VALID,23.6036,VALID,52,VALID,0,
2010-08-23, 00:46:04,VALID,999.867,VALID,0,VALID,91.9369,VALID,0,VALID,23.5823,VALID,52,VALID,0,
2010-08-23, 00:47:04,VALID,999.823,VALID,0,VALID,91.9445,VALID,0,VALID,23.6036,VALID,51,VALID,0,
2010-08-23, 00:48:04,VALID,999.836,VALID,0,VALID,92.0132,VALID,0,VALID,23.6036,VALID,51,VALID,0,
2010-08-23, 00:49:04,VALID,999.833,VALID,0,VALID,92.0209,VALID,0,VALID,23.6232,VALID,52,VALID,0,
2010-08-23, 00:50:04,VALID,999.787,VALID,0,VALID,92.0743,VALID,0,VALID,23.6036,VALID,52,VALID,0,
2010-08-23, 00:51:04,VALID,999.808,VALID,0,VALID,92.12,VALID,0,VALID,23.6232,VALID,63,VALID,0,
2010-08-23, 00:52:04,VALID,999.784,VALID,0,VALID,92.1658,VALID,0,VALID,23.6427,VALID,84,VALID,0,
2010-08-23, 00:53:04,VALID,999.778,VALID,0,VALID,92.1277,VALID,0,VALID,23.6622,VALID,96,VALID,0,
2010-08-23, 00:54:04,VALID,999.763,VALID,0,VALID,92.1124,VALID,0,VALID,23.6817,VALID,96,VALID,0,
2010-08-23, 00:55:04,VALID,999.781,VALID,0,VALID,92.0971,VALID,0,VALID,23.6622,VALID,96,VALID,0,
2010-08-23, 00:56:04,VALID,999.791,VALID,0,VALID,92.0514,VALID,0,VALID,23.6622,VALID,96,VALID,0,
2010-08-23, 00:57:04,VALID,999.743,VALID,0,VALID,92.0666,VALID,0,VALID,23.6622,VALID,96,VALID,0,
2010-08-23, 00:58:04,VALID,999.711,VALID,0,VALID,92.1124,VALID,0,VALID,23.6604,VALID,96,VALID,0,
2010-08-23, 00:59:04,VALID,999.7,VALID,0,VALID,92.1658,VALID,0,VALID,23.6817,VALID,96,VALID,0,
2010-08-23, 01:00:04,VALID,999.689,VALID,0,VALID,92.204,VALID,0,VALID,23.7012,VALID,96,VALID,0,
2010-08-23, 01:01:04,VALID,999.692,VALID,0,VALID,92.2116,VALID,0,VALID,23.7207,VALID,99,VALID,0,
2010-08-23, 01:02:04,VALID,999.652,VALID,0,VALID,92.1734,VALID,0,VALID,23.7597,VALID,108,VALID,0,
2010-08-23, 01:03:04,VALID,999.661,VALID,0,VALID,92.1506,VALID,0,VALID,23.7793,VALID,108,VALID,1.08086,
2010-08-23, 01:04:04,VALID,999.625,VALID,0,VALID,92.12,VALID,0,VALID,23.8183,VALID,86,VALID,1.08672,
2010-08-23, 01:05:04,VALID,999.632,VALID,0,VALID,92.0437,VALID,0,VALID,23.8378,VALID,86,VALID,0.915234,
2010-08-23, 01:06:04,VALID,999.603,VALID,0,VALID,91.9445,VALID,0,VALID,23.8378,VALID,86,VALID,0.928516,
2010-08-23, 01:07:04,VALID,999.62,VALID,0,VALID,91.9217,VALID,0,VALID,23.836,VALID,86,VALID,0.7375,
2010-08-23, 01:08:04,VALID,999.636,VALID,0,VALID,91.9369,VALID,0,VALID,23.8573,VALID,86,VALID,0.340625,
2010-08-23, 01:09:04,VALID,999.619,VALID,0,VALID,91.8988,VALID,0,VALID,23.8573,VALID,86,VALID,0.692187,
2010-08-23, 01:10:04,VALID,999.62,VALID,0,VALID,91.914,VALID,0,VALID,23.8768,VALID,86,VALID,0.659766,
2010-08-23, 01:11:04,VALID,999.562,VALID,0,VALID,91.9369,VALID,0,VALID,23.8768,VALID,86,VALID,0.544922,
2010-08-23, 01:12:04,VALID,999.509,VALID,0,VALID,91.9751,VALID,0,VALID,23.8982,VALID,86,VALID,0.176172,
2010-08-23, 01:13:04,VALID,999.483,VALID,0,VALID,91.9903,VALID,0,VALID,23.8573,VALID,86,VALID,0,
2010-08-23, 01:14:04,VALID,999.44,VALID,0,VALID,91.998,VALID,0,VALID,23.8573,VALID,86,VALID,0.112891,
2010-08-23, 01:15:04,VALID,999.457,VALID,0,VALID,92.0361,VALID,0,VALID,23.8591,VALID,86,VALID,0.0238281,
2010-08-23, 01:16:04,VALID,999.462,VALID,0,VALID,92.0819,VALID,0,VALID,23.8573,VALID,86,VALID,0.0875,
2010-08-23, 01:17:04,VALID,999.483,VALID,0,VALID,92.0666,VALID,0,VALID,23.8378,VALID,86,VALID,0,
2010-08-23, 01:18:04,VALID,999.473,VALID,0,VALID,92.0895,VALID,0,VALID,23.8378,VALID,86,VALID,0,
2010-08-23, 01:19:04,VALID,999.465,VALID,0,VALID,92.1506,VALID,0,VALID,23.8396,VALID,86,VALID,0,
2010-08-23, 01:20:04,VALID,999.45,VALID,0,VALID,92.1963,VALID,0,VALID,23.8183,VALID,86,VALID,0,
2010-08-23, 01:21:04,VALID,999.471,VALID,0,VALID,92.2116,VALID,0,VALID,23.7988,VALID,86,VALID,0,
2010-08-23, 01:22:04,VALID,999.417,VALID,0,VALID,92.2345,VALID,0,VALID,23.7988,VALID,86,VALID,0,
2010-08-23, 01:23:04,VALID,999.431,VALID,0,VALID,92.2879,VALID,0,VALID,23.7988,VALID,86,VALID,0.0253906,
2010-08-23, 01:24:04,VALID,999.433,VALID,0,VALID,92.3642,VALID,0,VALID,23.7988,VALID,86,VALID,0,
2010-08-23, 01:25:04,VALID,999.421,VALID,0,VALID,92.4252,VALID,0,VALID,23.7793,VALID,86,VALID,0.0492188,
2010-08-23, 01:26:04,VALID,999.426,VALID,0,VALID,92.471,VALID,0,VALID,23.7793,VALID,86,VALID,0.0867188,
2010-08-23, 01:27:04,VALID,999.393,VALID,0,VALID,92.4863,VALID,0,VALID,23.7597,VALID,86,VALID,0,
2010-08-23, 01:28:04,VALID,999.391,VALID,0,VALID,92.5168,VALID,0,VALID,23.7402,VALID,86,VALID,0,
2010-08-23, 01:29:04,VALID,999.385,VALID,0,VALID,92.5015,VALID,0,VALID,23.7402,VALID,86,VALID,0.0015625,
2010-08-23, 01:30:04,VALID,999.385,VALID,0,VALID,92.5244,VALID,0,VALID,23.7402,VALID,86,VALID,0,
2010-08-23, 01:31:04,VALID,999.367,VALID,0,VALID,92.5854,VALID,0,VALID,23.7402,VALID,86,VALID,0,
2010-08-23, 01:32:04,VALID,999.357,VALID,0,VALID,92.6007,VALID,0,VALID,23.7402,VALID,86,VALID,0,
2010-08-23, 01:33:04,VALID,999.313,VALID,0,VALID,92.6007,VALID,0,VALID,23.7207,VALID,86,VALID,0,
2010-08-23, 01:34:04,VALID,999.307,VALID,0,VALID,92.5931,VALID,0,VALID,23.7207,VALID,86,VALID,0,
2010-08-23, 01:35:04,VALID,999.293,VALID,0,VALID,92.6236,VALID,0,VALID,23.7012,VALID,86,VALID,0,
2010-08-23, 01:36:04,VALID,999.268,VALID,0,VALID,92.6388,VALID,0,VALID,23.7012,VALID,86,VALID,0,
2010-08-23, 01:37:04,VALID,999.271,VALID,0,VALID,92.6617,VALID,0,VALID,23.7012,VALID,86,VALID,0,
2010-08-23, 01:38:04,VALID,999.289,VALID,0,VALID,92.7075,VALID,0,VALID,23.7207,VALID,86,VALID,0,
2010-08-23, 01:39:04,VALID,999.272,VALID,0,VALID,92.738,VALID,0,VALID,23.7207,VALID,86,VALID,0,
2010-08-23, 01:40:04,VALID,999.297,VALID,0,VALID,92.7609,VALID,0,VALID,23.7402,VALID,86,VALID,0,
2010-08-23, 01:41:04,VALID,999.297,VALID,0,VALID,92.7685,VALID,0,VALID,23.7793,VALID,86,VALID,0,
2010-08-23, 01:42:04,VALID,999.317,VALID,0,VALID,92.7533,VALID,0,VALID,23.7988,VALID,86,VALID,0,
2010-08-23, 01:43:04,VALID,999.319,VALID,0,VALID,92.677,VALID,0,VALID,23.7988,VALID,86,VALID,0,
2010-08-23, 01:44:04,VALID,999.322,VALID,0,VALID,92.5778,VALID,0,VALID,23.7793,VALID,86,VALID,0,
2010-08-23, 01:45:04,VALID,999.306,VALID,0,VALID,92.4481,VALID,0,VALID,23.7597,VALID,86,VALID,0,
2010-08-23, 01:46:04,VALID,999.298,VALID,0,VALID,92.4023,VALID,0,VALID,23.7597,VALID,86,VALID,0,
2010-08-23, 01:47:04,VALID,999.279,VALID,0,VALID,92.326,VALID,0,VALID,23.7402,VALID,86,VALID,0,
2010-08-23, 01:48:04,VALID,999.285,VALID,0,VALID,92.326,VALID,0,VALID,23.7207,VALID,86,VALID,0,
2010-08-23, 01:49:04,VALID,999.262,VALID,0,VALID,92.3566,VALID,0,VALID,23.7207,VALID,86,VALID,0,
2010-08-23, 01:50:04,VALID,999.201,VALID,0,VALID,92.4023,VALID,0,VALID,23.7207,VALID,86,VALID,0,
2010-08-23, 01:51:04,VALID,999.174,VALID,0,VALID,92.5015,VALID,0,VALID,23.7189,VALID,86,VALID,0,
2010-08-23, 01:52:04,VALID,999.116,VALID,0,VALID,92.5626,VALID,0,VALID,23.7402,VALID,86,VALID,0,
2010-08-23, 01:53:04,VALID,999.115,VALID,0,VALID,92.6236,VALID,0,VALID,23.7402,VALID,79,VALID,0,
2010-08-23, 01:54:04,VALID,999.087,VALID,0,VALID,92.5931,VALID,0,VALID,23.7189,VALID,79,VALID,0,
2010-08-23, 01:55:04,VALID,999.119,VALID,0,VALID,92.5778,VALID,0,VALID,23.7012,VALID,79,VALID,0,
2010-08-23, 01:56:04,VALID,999.117,VALID,0,VALID,92.5854,VALID,0,VALID,23.6604,VALID,79,VALID,0,
2010-08-23, 01:57:04,VALID,999.114,VALID,0,VALID,92.616,VALID,0,VALID,23.7012,VALID,79,VALID,0,
2010-08-23, 01:58:04,VALID,999.121,VALID,0,VALID,92.6465,VALID,0,VALID,23.6799,VALID,79,VALID,0,
2010-08-23, 01:59:04,VALID,999.119,VALID,0,VALID,92.6923,VALID,0,VALID,23.7207,VALID,79,VALID,0,
2010-08-23, 02:00:04,VALID,999.111,VALID,0,VALID,92.738,VALID,0,VALID,23.7012,VALID,79,VALID,0,
2010-08-23, 02:01:04,VALID,999.119,VALID,0,VALID,92.7838,VALID,0,VALID,23.7207,VALID,79,VALID,0,
2010-08-23, 02:02:04,VALID,999.119,VALID,0,VALID,92.8067,VALID,0,VALID,23.6994,VALID,79,VALID,0,
2010-08-23, 02:03:04,VALID,999.11,VALID,0,VALID,92.8143,VALID,0,VALID,23.7207,VALID,79,VALID,0,
2010-08-23, 02:04:04,VALID,999.123,VALID,0,VALID,92.8448,VALID,0,VALID,23.7402,VALID,79,VALID,0,
2010-08-23, 02:05:04,VALID,999.089,VALID,0,VALID,92.8372,VALID,0,VALID,23.7402,VALID,79,VALID,0,
2010-08-23, 02:06:04,VALID,999.067,VALID,0,VALID,92.7838,VALID,0,VALID,23.6994,VALID,79,VALID,0,
2010-08-23, 02:07:04,VALID,999.055,VALID,0,VALID,92.7228,VALID,0,VALID,23.6622,VALID,79,VALID,0,
2010-08-23, 02:08:04,VALID,999.023,VALID,0,VALID,92.6923,VALID,0,VALID,23.6622,VALID,79,VALID,0,
2010-08-23, 02:09:04,VALID,999.035,VALID,0,VALID,92.6923,VALID,0,VALID,23.6817,VALID,354,VALID,0.617578,
2010-08-23, 02:10:04,VALID,999.017,VALID,0,VALID,92.6999,VALID,0,VALID,23.6622,VALID,358,VALID,0.794531,
2010-08-23, 02:11:04,VALID,999.036,VALID,0,VALID,92.6388,VALID,0,VALID,23.6232,VALID,12,VALID,0.847266,
2010-08-23, 02:12:04,VALID,999.023,VALID,0,VALID,92.5931,VALID,0,VALID,23.5823,VALID,12,VALID,0.982422,
2010-08-23, 02:13:04,VALID,998.982,VALID,0,VALID,92.5778,VALID,0,VALID,23.6036,VALID,29,VALID,0.771094,
2010-08-23, 02:14:04,VALID,998.989,VALID,0,VALID,92.4405,VALID,0,VALID,23.5256,VALID,42,VALID,1.03164,
2010-08-23, 02:15:04,VALID,998.964,VALID,0,VALID,92.3718,VALID,0,VALID,23.4866,VALID,46,VALID,0.844141,
2010-08-23, 02:16:04,VALID,998.931,VALID,0,VALID,92.3871,VALID,0,VALID,23.4475,VALID,47,VALID,0.392578,
2010-08-23, 02:17:04,VALID,998.917,VALID,0,VALID,92.471,VALID,0,VALID,23.428,VALID,47,VALID,0.39375,
2010-08-23, 02:18:04,VALID,998.864,VALID,0,VALID,92.4863,VALID,0,VALID,23.428,VALID,47,VALID,0.191797,
2010-08-23, 02:19:04,VALID,998.884,VALID,0,VALID,92.6007,VALID,0,VALID,23.4475,VALID,47,VALID,0.310547,
2010-08-23, 02:20:04,VALID,998.866,VALID,0,VALID,92.738,VALID,0,VALID,23.4671,VALID,47,VALID,0.0507813,
2010-08-23, 02:21:04,VALID,998.834,VALID,0,VALID,92.8372,VALID,0,VALID,23.5274,VALID,47,VALID,0.0621094,
2010-08-23, 02:22:04,VALID,998.796,VALID,0,VALID,92.883,VALID,0,VALID,23.4866,VALID,47,VALID,0,
2010-08-23, 02:23:04,VALID,998.803,VALID,0,VALID,92.9135,VALID,0,VALID,23.4866,VALID,47,VALID,0,
2010-08-23, 02:24:04,VALID,998.767,VALID,0,VALID,92.9822,VALID,0,VALID,23.5256,VALID,47,VALID,0.405078,
2010-08-23, 02:25:04,VALID,998.752,VALID,0,VALID,93.0356,VALID,0,VALID,23.5256,VALID,64,VALID,0.766016,
2010-08-23, 02:26:04,VALID,998.731,VALID,0,VALID,93.0508,VALID,0,VALID,23.5646,VALID,65,VALID,0.61875,
2010-08-23, 02:27:04,VALID,998.718,VALID,0,VALID,93.0585,VALID,0,VALID,23.5451,VALID,65,VALID,0.247266,
2010-08-23, 02:28:04,VALID,998.762,VALID,0,VALID,92.9822,VALID,0,VALID,23.5061,VALID,65,VALID,0.034375,
2010-08-23, 02:29:04,VALID,998.78,VALID,0,VALID,92.9364,VALID,0,VALID,23.4848,VALID,65,VALID,0.409766,
2010-08-23, 02:30:04,VALID,998.758,VALID,0,VALID,92.944,VALID,0,VALID,23.5451,VALID,65,VALID,0.285156,
2010-08-23, 02:31:04,VALID,998.811,VALID,0,VALID,92.9822,VALID,0,VALID,23.5841,VALID,65,VALID,0.195313,
2010-08-23, 02:32:04,VALID,998.808,VALID,0,VALID,93.028,VALID,0,VALID,23.5823,VALID,67,VALID,0.423047,
2010-08-23, 02:33:04,VALID,998.807,VALID,0,VALID,93.0508,VALID,0,VALID,23.6427,VALID,67,VALID,0.916797,
2010-08-23, 02:34:04,VALID,998.815,VALID,0,VALID,93.0127,VALID,0,VALID,23.6427,VALID,62,VALID,1.20977,
2010-08-23, 02:35:04,VALID,998.801,VALID,0,VALID,92.9593,VALID,0,VALID,23.6622,VALID,51,VALID,1.04492,
2010-08-23, 02:36:04,VALID,998.798,VALID,0,VALID,92.9059,VALID,0,VALID,23.6817,VALID,46,VALID,0.789063,
2010-08-23, 02:37:04,VALID,998.804,VALID,0,VALID,92.7075,VALID,0,VALID,23.6232,VALID,39,VALID,0.506641,
2010-08-23, 02:38:04,VALID,998.848,VALID,0,VALID,92.5091,VALID,0,VALID,23.5841,VALID,39,VALID,0.447266,
2010-08-23, 02:39:04,VALID,998.848,VALID,0,VALID,92.4786,VALID,0,VALID,23.6232,VALID,14,VALID,0.521875,
2010-08-23, 02:40:04,VALID,998.849,VALID,0,VALID,92.5091,VALID,0,VALID,23.6622,VALID,14,VALID,0.460156,
2010-08-23, 02:41:04,VALID,998.846,VALID,0,VALID,92.532,VALID,0,VALID,23.6622,VALID,14,VALID,0.0234375,
2010-08-23, 02:42:04,VALID,998.87,VALID,0,VALID,92.5168,VALID,0,VALID,23.6427,VALID,14,VALID,0.0515625,
2010-08-23, 02:43:04,VALID,998.843,VALID,0,VALID,92.5778,VALID,0,VALID,23.6622,VALID,14,VALID,0.389453,
2010-08-23, 02:44:04,VALID,998.842,VALID,0,VALID,92.6083,VALID,0,VALID,23.6817,VALID,14,VALID,0.358594,
2010-08-23, 02:45:04,VALID,998.835,VALID,0,VALID,92.6007,VALID,0,VALID,23.6604,VALID,14,VALID,0.263672,
2010-08-23, 02:46:04,VALID,998.833,VALID,0,VALID,92.5549,VALID,0,VALID,23.6409,VALID,14,VALID,0.270703,
2010-08-23, 02:47:04,VALID,998.803,VALID,0,VALID,92.4939,VALID,0,VALID,23.6019,VALID,14,VALID,0.255078,
2010-08-23, 02:48:04,VALID,998.814,VALID,0,VALID,92.4328,VALID,0,VALID,23.6036,VALID,14,VALID,0.258594,
2010-08-23, 02:49:04,VALID,998.781,VALID,0,VALID,92.471,VALID,0,VALID,23.6036,VALID,14,VALID,0.335547,
2010-08-23, 02:50:04,VALID,998.802,VALID,0,VALID,92.5397,VALID,0,VALID,23.6232,VALID,14,VALID,0.224609,
2010-08-23, 02:51:04,VALID,998.825,VALID,0,VALID,92.5549,VALID,0,VALID,23.6036,VALID,14,VALID,0.0902344,
2010-08-23, 02:52:04,VALID,998.83,VALID,0,VALID,92.5244,VALID,0,VALID,23.5646,VALID,14,VALID,0,
2010-08-23, 02:53:04,VALID,998.847,VALID,0,VALID,92.471,VALID,0,VALID,23.5061,VALID,14,VALID,0,
2010-08-23, 02:54:04,VALID,998.884,VALID,0,VALID,92.4481,VALID,0,VALID,23.4866,VALID,14,VALID,0,
2010-08-23, 02:55:04,VALID,998.905,VALID,0,VALID,92.5015,VALID,0,VALID,23.4866,VALID,14,VALID,0.0515625,
2010-08-23, 02:56:04,VALID,998.905,VALID,0,VALID,92.4863,VALID,0,VALID,23.4671,VALID,14,VALID,0.223438,
2010-08-23, 02:57:04,VALID,998.904,VALID,0,VALID,92.5702,VALID,0,VALID,23.4475,VALID,14,VALID,0.252344,
2010-08-23, 02:58:04,VALID,998.884,VALID,0,VALID,92.6083,VALID,0,VALID,23.4475,VALID,14,VALID,0,
2010-08-23, 02:59:04,VALID,998.864,VALID,0,VALID,92.6617,VALID,0,VALID,23.4085,VALID,14,VALID,0,
2010-08-23, 03:00:04,VALID,998.808,VALID,0,VALID,92.6999,VALID,0,VALID,23.4085,VALID,14,VALID,0,
2010-08-23, 03:01:04,VALID,998.835,VALID,0,VALID,92.7991,VALID,0,VALID,23.428,VALID,14,VALID,0,
2010-08-23, 03:02:04,VALID,998.793,VALID,0,VALID,92.8906,VALID,0,VALID,23.428,VALID,14,VALID,0,
2010-08-23, 03:03:04,VALID,998.792,VALID,0,VALID,92.9517,VALID,0,VALID,23.4475,VALID,14,VALID,0,
2010-08-23, 03:04:04,VALID,998.784,VALID,0,VALID,92.9974,VALID,0,VALID,23.4475,VALID,14,VALID,0,
2010-08-23, 03:05:04,VALID,998.774,VALID,0,VALID,92.9974,VALID,0,VALID,23.4085,VALID,14,VALID,0,
2010-08-23, 03:06:04,VALID,998.773,VALID,0,VALID,92.9898,VALID,0,VALID,23.3695,VALID,14,VALID,0,
2010-08-23, 03:07:04,VALID,998.74,VALID,0,VALID,92.9974,VALID,0,VALID,23.389,VALID,14,VALID,0,
2010-08-23, 03:08:04,VALID,998.773,VALID,0,VALID,93.028,VALID,0,VALID,23.389,VALID,14,VALID,0,
2010-08-23, 03:09:04,VALID,998.734,VALID,0,VALID,93.0661,VALID,0,VALID,23.389,VALID,14,VALID,0,
2010-08-23, 03:10:04,VALID,998.743,VALID,0,VALID,93.1271,VALID,0,VALID,23.4085,VALID,14,VALID,0,
2010-08-23, 03:11:04,VALID,998.728,VALID,0,VALID,93.1348,VALID,0,VALID,23.428,VALID,14,VALID,0,
2010-08-23, 03:12:04,VALID,998.698,VALID,0,VALID,93.1577,VALID,0,VALID,23.4475,VALID,14,VALID,0,
2010-08-23, 03:13:04,VALID,998.668,VALID,0,VALID,93.1958,VALID,0,VALID,23.4475,VALID,14,VALID,0,
2010-08-23, 03:14:04,VALID,998.656,VALID,0,VALID,93.2492,VALID,0,VALID,23.4671,VALID,14,VALID,0,
2010-08-23, 03:15:04,VALID,998.621,VALID,0,VALID,93.2263,VALID,0,VALID,23.4671,VALID,14,VALID,0,
2010-08-23, 03:16:04,VALID,998.638,VALID,0,VALID,93.2416,VALID,0,VALID,23.4671,VALID,14,VALID,0,
2010-08-23, 03:17:04,VALID,998.618,VALID,0,VALID,93.2645,VALID,0,VALID,23.4866,VALID,14,VALID,0,
2010-08-23, 03:18:04,VALID,998.643,VALID,0,VALID,93.295,VALID,0,VALID,23.5061,VALID,14,VALID,0,
2010-08-23, 03:19:04,VALID,998.592,VALID,0,VALID,93.295,VALID,0,VALID,23.5061,VALID,14,VALID,0,
2010-08-23, 03:20:04,VALID,998.636,VALID,0,VALID,93.2568,VALID,0,VALID,23.4866,VALID,14,VALID,0,
2010-08-23, 03:21:04,VALID,998.656,VALID,0,VALID,93.2568,VALID,0,VALID,23.4671,VALID,14,VALID,0,
2010-08-23, 03:22:04,VALID,998.682,VALID,0,VALID,93.234,VALID,0,VALID,23.4475,VALID,14,VALID,0,
2010-08-23, 03:23:04,VALID,998.689,VALID,0,VALID,93.2187,VALID,0,VALID,23.4475,VALID,14,VALID,0,
2010-08-23, 03:24:04,VALID,998.698,VALID,0,VALID,93.2187,VALID,0,VALID,23.4475,VALID,14,VALID,0,
2010-08-23, 03:25:04,VALID,998.692,VALID,0,VALID,93.2263,VALID,0,VALID,23.4671,VALID,14,VALID,0,
2010-08-23, 03:26:04,VALID,998.676,VALID,0,VALID,93.2492,VALID,0,VALID,23.4866,VALID,14,VALID,0,
2010-08-23, 03:27:04,VALID,998.677,VALID,0,VALID,93.2263,VALID,0,VALID,23.5274,VALID,14,VALID,0,
2010-08-23, 03:28:04,VALID,998.656,VALID,0,VALID,93.2492,VALID,0,VALID,23.4866,VALID,14,VALID,0,
2010-08-23, 03:29:04,VALID,998.689,VALID,0,VALID,93.2416,VALID,0,VALID,23.5061,VALID,14,VALID,0,
2010-08-23, 03:30:04,VALID,998.731,VALID,0,VALID,93.2645,VALID,0,VALID,23.5061,VALID,14,VALID,0,
2010-08-23, 03:31:04,VALID,998.748,VALID,0,VALID,93.2568,VALID,0,VALID,23.4866,VALID,14,VALID,0,
2010-08-23, 03:32:04,VALID,998.746,VALID,0,VALID,93.2416,VALID,0,VALID,23.4866,VALID,14,VALID,0,
2010-08-23, 03:33:04,VALID,998.76,VALID,0,VALID,93.2263,VALID,0,VALID,23.4671,VALID,14,VALID,0,
2010-08-23, 03:34:04,VALID,998.774,VALID,0,VALID,93.2263,VALID,0,VALID,23.4671,VALID,357,VALID,0.0328125,
2010-08-23, 03:35:04,VALID,998.758,VALID,0,VALID,93.2111,VALID,0,VALID,23.4475,VALID,231,VALID,0.774219,
2010-08-23, 03:36:04,VALID,998.796,VALID,0,VALID,93.1729,VALID,0,VALID,23.4671,VALID,231,VALID,0.0914062,
2010-08-23, 03:37:04,VALID,998.789,VALID,0,VALID,93.1805,VALID,0,VALID,23.4475,VALID,224,VALID,0.000390625,
2010-08-23, 03:38:04,VALID,998.777,VALID,0,VALID,93.1271,VALID,0,VALID,23.4653,VALID,104,VALID,0.696094,
2010-08-23, 03:39:04,VALID,998.789,VALID,0,VALID,93.089,VALID,0,VALID,23.5061,VALID,107,VALID,0.379297,
2010-08-23, 03:40:04,VALID,998.77,VALID,0,VALID,92.9669,VALID,0,VALID,23.5061,VALID,107,VALID,0.531641,
2010-08-23, 03:41:04,VALID,998.8,VALID,0,VALID,92.8143,VALID,0,VALID,23.4671,VALID,150,VALID,0.753516,
2010-08-23, 03:42:04,VALID,998.797,VALID,0,VALID,92.6694,VALID,0,VALID,23.4671,VALID,172,VALID,0.769531,
2010-08-23, 03:43:04,VALID,998.81,VALID,0,VALID,92.5778,VALID,0,VALID,23.5256,VALID,176,VALID,0.5125,
2010-08-23, 03:44:04,VALID,998.783,VALID,0,VALID,92.5015,VALID,0,VALID,23.5451,VALID,176,VALID,0.291797,
2010-08-23, 03:45:04,VALID,998.775,VALID,0,VALID,92.471,VALID,0,VALID,23.5451,VALID,176,VALID,0,
2010-08-23, 03:46:04,VALID,998.726,VALID,0,VALID,92.3947,VALID,0,VALID,23.5451,VALID,176,VALID,0.292188,
2010-08-23, 03:47:04,VALID,998.702,VALID,0,VALID,92.326,VALID,0,VALID,23.5451,VALID,176,VALID,0.396875,
2010-08-23, 03:48:04,VALID,998.725,VALID,0,VALID,92.2955,VALID,0,VALID,23.5646,VALID,176,VALID,0,
2010-08-23, 03:49:04,VALID,998.719,VALID,0,VALID,92.1811,VALID,0,VALID,23.5646,VALID,176,VALID,0,
2010-08-23, 03:50:04,VALID,998.756,VALID,0,VALID,92.0971,VALID,0,VALID,23.5646,VALID,180,VALID,0,
2010-08-23, 03:51:04,VALID,998.769,VALID,0,VALID,92.0819,VALID,0,VALID,23.5433,VALID,282,VALID,0,
2010-08-23, 03:52:04,VALID,998.8,VALID,0,VALID,92.0895,VALID,0,VALID,23.5433,VALID,290,VALID,0,
2010-08-23, 03:53:04,VALID,998.796,VALID,0,VALID,92.1353,VALID,0,VALID,23.5238,VALID,290,VALID,0,
2010-08-23, 03:54:04,VALID,998.809,VALID,0,VALID,92.1734,VALID,0,VALID,23.5451,VALID,290,VALID,0,
2010-08-23, 03:55:04,VALID,998.823,VALID,0,VALID,92.1429,VALID,0,VALID,23.4848,VALID,290,VALID,0,